IRIDIUM 33 DEB, 33775

Orbit data source: Space-Track

IRIDIUM 33 DEB, 33775 is space debris in LEO originally from a launch on Sun, 14 Sep 1997 UTC launched from the Tyuratam Missile And Space Complex (TTMTR). The debris from Iridium 33, an American commercial communications satellite, has been tracked extensively since its accidental collision with the defunct Russian satellite Cosmos 2251 in 2009. This event, occurring at high speed in low Earth orbit (LEO), generated thousands of pieces of space debris, significantly increasing the risk of further collisions. The Iridium 33 debris cloud has impacted space traffic management and orbital debris mitigation strategies, making it a subject of ongoing study in space situational awareness.

Loading next visibility...
Identifier
33775, 1997-051N
Orbit
LEO
Country
Flag of USUS
Related business
Manufacturer
Unknown
Mission
Spacecraft
Bus & Motor
Unknown
Mass
Unknown
Launch date (UTC)
1997-09-14 (28 years ago)
Launch vehicle
Unknown
Launch site
Tyuratam Missile And Space Complex (TTMTR)
Object type
Payload
Rocket body
Debris
Shape & HBR
Unknown shape, 0.3 m
Radar Cross Section
Medium (>0.1 m² and <1 m²)

Expand to show TLE details & history
Last TLE update: 1 day ago

TLE from 1 day ago
0 IRIDIUM 33 DEB
1 33775U 97051N   25306.37631080  .00001648  00000-0  50343-3 0  9998
2 33775  86.3631  66.7786 0011417 298.9641 119.3776 14.41315323875592
Epoch: 2025-11-02T09:01Z
TLE epoch observation values (Epoch: 2025-11-02T09:01:53.253Z)
Latitude
58.36461°
Longitude
-104.69589°
Altitude
768.102 km
Speed
7.474 km/s
True Right ascension
04h 50m 40s
True Declination
58° 12' 40"
Sunlit
Object was in full shadow at epoch
Visualization orbit readout
Latitude
Unknown
Longitude
Unknown
Altitude
Unknown
Speed
Unknown
Apparent Right ascension
Unknown
Apparent Declination
Unknown
Sunlit
N/A
Visualization observer readout
Local Sidereal Time
14:23:06
Azimuth
Unknown
Elevation
Unknown
Doppler factor
Unknown
Orbital elements
Apogee altitude
759.251 km
Perigee altitude
742.972 km
Semi-major axis
7,129.248 km
Eccentricity
0.00114
Inclination
86.3631°
RAAN
66.7786°
Arg. of periapsis
298.9641°
True anomaly
119.49153°
Mean anomaly
119.3776°
Eccentric anomaly
119.43457°
Mean motion
3.6056 °/min
Orbital period
99.84 mins
BSTAR
0.00050343
Loading maneuver chart data...
Computing Atmospheric mass density...

Documentation

Showing up to 5 results
|